User: anonymous   Login
Location: Montreal
(45.5000°N, 73.5833°W)
Time: 19:38:34
(UTC-05:00)
Language:

Tiangong 2 - Orbit

View from above orbital plane
View from above orbital plane
View from above satellite
View from above satellite

Ground track
Ground track

The orbit data is extracted from the following two-line orbital elements,

1 41765U 16057A   17347.45825600  .00004081  00000-0  54058-4 0  9993
2 41765  42.7855   9.4786 0002765  18.4134 122.7547 15.59804768 70964
Epoch (UTC): 13 December 2017 10:59:53
Eccentricity: 0.0002765
inclination: 42.7855°
perigee height: 386 km
apogee height: 390 km
right ascension of ascending node: 9.4786°
argument of perigee: 18.4134°
revolutions per day: 15.59804768
mean anomaly at epoch: 122.7547°
orbit number at epoch: 7096

The dashed part of the orbit path shows where the satellite is in the earth's shadow,  

DLR